Location: Pegasus Observatory
(35.6569°N, 82.5850°W)
Time: 15:13:15
(UTC-04:00)

PRISM - Visible Passes

Search period start: 10 April 2020 00:00
Search period end: 20 April 2020 00:00
Orbit: 566 x 586 km, 98.1° (Epoch: 10 April)

Date Brightness Start Highest point End Pass type
(mag) Time Alt. Az. Time Alt. Az. Time Alt. Az.
15 Apr ? 03:31:30 10° N 03:31:31 10° N 03:31:31 10° N visible
16 Apr ? 03:35:19 10° N 03:35:26 11° N 03:35:26 11° N visible
17 Apr ? 03:39:08 10° N 03:39:20 11° N 03:39:20 11° N visible
18 Apr ? 03:42:57 10° N 03:43:15 12° N 03:43:15 12° N visible
19 Apr ? 03:46:47 10° N 03:47:08 12° N 03:47:08 12° N visible
